[[{"header":{"parameterUnit":"m.s-1","parameterCategory":1,"la1":30.2991,"la2":30.254,"lo1":-89.0895,"lo2":-89.0444,"dy":0.0017,"dx":0.0017,"nx":28,"ny":28,"refTime":"2025-02-06T09:00:00:Z","depth":0,"parameterNumber":2,"parameterNumberName":"U-component_of_WINDS"},"data":[0,0,0,0,0,0,0,0,0,0,0,0,0,0,0,0,0,0,0,0,0,0,0,0,0,0,0,0,0,0,0,0,0,0,0,0,0,0,0,0,0,0,0,0,0,0,0,0,0,0,0,0,0,0,0,0,0,0,-1.4854,-1.4855,0,-1.4934,-1.4935,-1.4935,-1.4969,-1.4969,-1.4969,-1.4969,-1.5048,-1.505,-1.5052,0,0,0,0,0,0,0,0,0,0,0,0,0,-1.473,-1.4732,-1.4854,-1.4855,-1.4856,-1.4933,-1.4935,-1.4936,-1.497,-1.4969,-1.4969,-1.4969,-1.5047,-1.505,-1.5052,0,0,0,0,0,0,0,0,0,0,0,0,0,-1.4794,-1.4732,-1.4854,-1.4882,-1.4886,-1.4933,-1.4935,-1.4936,-1.497,-1.4969,-1.4969,-1.4969,-1.5046,-1.5049,-1.5053,-1.5077,0,0,-1.5063,-1.5064,0,0,0,0,0,0,0,0,-1.479,-1.4798,-1.4877,-1.4881,-1.4884,-1.4942,-1.492,-1.4983,-1.497,-1.4938,-1.4969,-1.4969,-1.5012,-1.5019,-1.5034,-1.5081,-1.5084,-1.5063,-1.5065,-1.5067,-1.5068,0,0,0,0,0,0,0,-1.4786,-1.4795,-1.4885,-1.4878,-1.4883,-1.489,-1.4899,-1.4932,-1.4975,-1.494,-1.4943,-1.4952,-1.5014,-1.503,-1.5036,-1.5085,-1.5063,-1.5066,-1.5068,-1.5069,-1.5157,-1.5157,0,0,0,0,0,0,-1.4777,-1.4791,-1.4883,-1.4888,-1.4836,-1.4893,-1.4903,-1.4923,-1.4975,-1.4983,-1.4952,-1.4953,-1.5025,-1.5032,-1.5039,-1.5071,-1.5067,-1.507,-1.5072,-1.5157,-1.5157,-1.5157,0,0,0,0,0,0,-1.4774,-1.4785,-1.488,-1.484,-1.4853,-1.4895,-1.4918,-1.4925,-1.4941,-1.4984,-1.4991,-1.4961,-1.5025,-1.5034,-1.5068,-1.5074,-1.5071,-1.5074,-1.5156,-1.5157,-1.5157,-1.5136,0,0,0,0,0,0,-1.477,-1.4783,-1.4794,-1.484,-1.4855,-1.4908,-1.4918,-1.4927,-1.4947,-1.495,-1.4994,-1.5001,-1.5026,-1.5063,-1.5071,-1.5079,-1.5077,-1.5156,-1.5156,-1.5157,-1.5136,-1.5135,-1.5135,0,0,0,0,0,-1.4766,-1.4784,-1.4794,-1.4805,-1.4869,-1.4908,-1.4916,-1.4945,-1.4948,-1.4958,-1.4985,-1.5,-1.5072,-1.5066,-1.5075,-1.5084,-1.5155,-1.5156,-1.5157,-1.5136,-1.5135,-1.5135,0,0,0,0,0,0,-1.4735,-1.479,-1.4802,-1.4836,-1.4867,-1.4914,-1.4928,-1.4943,-1.4974,-1.4975,-1.5008,-1.5018,-1.5048,-1.507,-1.5061,-1.5111,-1.5115,-1.5118,-1.5096,-1.5096,-1.5095,-1.5089,-1.508,0,0,0,0,0,-1.4733,-1.4761,-1.4807,-1.4832,-1.4848,-1.4885,-1.4903,-1.4923,-1.4956,-1.4969,-1.4999,-1.503,-1.506,-1.5079,-1.5109,-1.5139,-1.5149,-1.515,-1.515,-1.5149,-1.5151,-1.5169,-1.517,-1.516,-1.516,-1.516,0,0,-1.4727,-1.4761,-1.4776,-1.4827,-1.4854,-1.4882,-1.4896,-1.4925,-1.4946,-1.4973,-1.5007,-1.503,-1.5067,-1.5099,-1.5115,-1.5118,-1.5156,-1.515,-1.5149,-1.5152,-1.517,-1.5171,-1.5172,-1.516,-1.516,-1.516,0,0,-1.4732,-1.476,-1.4785,-1.4811,-1.4852,-1.4877,-1.4882,-1.4927,-1.4944,-1.4978,-1.5,-1.5025,-1.5076,-1.5101,-1.5121,-1.5136,-1.5151,-1.5145,-1.5142,-1.5159,-1.516,-1.5161,-1.5166,-1.5168,-1.5147,-1.5147,-1.5147,0,-1.472,-1.4764,-1.4795,-1.4823,-1.4845,-1.4872,-1.4897,-1.4921,-1.4969,-1.4983,-1.4986,-1.5051,-1.5077,-1.5116,-1.512,-1.5135,-1.5143,-1.514,-1.5157,-1.5159,-1.516,-1.5166,-1.5168,-1.5146,-1.5146,-1.5146,-1.5146,0,-1.4747,-1.4777,-1.4792,-1.4839,-1.4862,-1.4888,-1.4923,-1.4942,-1.496,-1.4984,-1.5019,-1.5052,-1.509,-1.5101,-1.5117,-1.5142,-1.5143,-1.5151,-1.5156,-1.5159,-1.5165,-1.5168,-1.5144,-1.5145,-1.5145,-1.5145,0,0,-1.4734,-1.4799,-1.4804,-1.4825,-1.4872,-1.4896,-1.4923,-1.4961,-1.4977,-1.5009,-1.5032,-1.5075,-1.5084,-1.5106,-1.5126,-1.5141,-1.5152,-1.5148,-1.5149,-1.5148,-1.5181,-1.5174,-1.5176,-1.5162,-1.5162,-1.5163,-1.5178,0,-1.4745,-1.4797,-1.4826,-1.4865,-1.4893,-1.492,-1.4944,-1.4975,-1.4998,-1.5025,-1.5051,-1.5081,-1.5089,-1.5103,-1.5119,-1.5147,-1.5159,-1.5146,-1.5183,-1.5184,-1.5173,-1.5179,-1.5172,-1.5185,-1.518,-1.5181,-1.5181,0,-1.4765,-1.4798,-1.484,-1.4884,-1.4897,-1.4918,-1.4955,-1.4981,-1.5016,-1.5032,-1.5058,-1.5078,-1.5108,-1.511,-1.5151,-1.5142,-1.5159,-1.5175,-1.5176,-1.5181,-1.5183,-1.5184,-1.519,-1.5192,-1.5185,-1.5185,-1.5184,0,-1.4752,-1.4806,-1.4839,-1.4856,-1.4909,-1.4923,-1.4945,-1.4981,-1.5002,-1.5034,-1.5048,-1.5083,-1.5102,-1.5128,-1.5157,-1.5156,-1.5195,-1.52,-1.5209,-1.5208,-1.5216,-1.5215,-1.5224,-1.5227,-1.5227,-1.5227,-1.5227,0,-1.4761,-1.4786,-1.4834,-1.4853,-1.4882,-1.4915,-1.4942,-1.4966,-1.4998,-1.5023,-1.5047,-1.507,-1.5107,-1.5134,-1.5157,-1.5187,-1.5196,-1.5209,-1.5215,-1.5207,-1.5205,-1.5218,-1.5218,-1.5227,-1.5227,-1.5227,-1.5227,0,-1.4751,-1.4784,-1.4821,-1.4868,-1.4881,-1.49,-1.494,-1.496,-1.4985,-1.5016,-1.5025,-1.5064,-1.5097,-1.5129,-1.5173,-1.5188,-1.5219,-1.5226,-1.5207,-1.521,-1.5217,-1.5216,-1.5236,-1.524,-1.5239,-1.5239,-1.5239,0,-1.4755,-1.4775,-1.4824,-1.4843,-1.4865,-1.4895,-1.4917,-1.495,-1.4972,-1.5014,-1.5029,-1.5064,-1.5094,-1.5146,-1.5178,-1.5212,-1.522,-1.5225,-1.5225,-1.5217,-1.522,-1.5219,-1.5221,-1.5224,-1.5224,-1.5224,-1.5223,0,-1.4759,-1.4774,-1.4805,-1.4842,-1.4867,-1.4897,-1.4928,-1.4942,-1.4981,-1.5004,-1.5039,-1.5062,-1.5107,-1.5142,-1.518,-1.5202,-1.5219,-1.5223,-1.5227,-1.5219,-1.5207,-1.5214,-1.5205,-1.5222,-1.5223,-1.5223,-1.5223,-1.5223,-1.4756,-1.4775,-1.4813,-1.4846,-1.4873,-1.4902,-1.4923,-1.4951,-1.4981,-1.5021,-1.5039,-1.5074,-1.511,-1.5162,-1.5185,-1.5212,-1.5216,-1.5222,-1.5223,-1.5224,-1.5222,-1.5203,-1.5219,-1.5219,-1.5219,-1.5219,-1.5219,0,-1.4761,-1.4787,-1.4817,-1.486,-1.4887,-1.4901,-1.4936,-1.4957,-1.4988,-1.502,-1.5049,-1.5089,-1.5123,-1.5158,-1.5194,-1.5209,-1.5218,-1.5217,-1.5217,-1.5222,-1.5217,-1.521,-1.521,-1.521,-1.521,-1.521,-1.521,-1.521,-1.4766,-1.48,-1.4819,-1.4866,-1.4892,-1.4927,-1.4946,-1.4972,-1.4998,-1.5042,-1.507,-1.5093,-1.5126,-1.5165,-1.5196,-1.5206,-1.5218,-1.5215,-1.5226,-1.5221,-1.5222,-1.5222,-1.5216,-1.5217,-1.5217,-1.5229,-1.5229,-1.5229]},{"header":{"parameterUnit":"m.s-1","parameterCategory":1,"la1":30.2991,"la2":30.254,"lo1":-89.0895,"lo2":-89.0444,"dy":0.0017,"dx":0.0017,"nx":28,"ny":28,"refTime":"2025-02-06T09:00:00:Z","depth":0,"parameterNumber":3,"parameterNumberName":"V-component_of_WINDS"},"data":[0,0,0,0,0,0,0,0,0,0,0,0,0,0,0,0,0,0,0,0,0,0,0,0,0,0,0,0,0,0,0,0,0,0,0,0,0,0,0,0,0,0,0,0,0,0,0,0,0,0,0,0,0,0,0,0,0,0,3.4996,3.4997,0,3.5039,3.5039,3.504,3.5022,3.5021,3.502,3.5019,3.5062,3.5064,3.5066,0,0,0,0,0,0,0,0,0,0,0,0,0,3.4901,3.4903,3.4996,3.4997,3.4997,3.5039,3.5039,3.504,3.5022,3.5021,3.502,3.5019,3.5062,3.5064,3.5067,0,0,0,0,0,0,0,0,0,0,0,0,0,3.4943,3.4903,3.4996,3.4994,3.4994,3.5039,3.5039,3.504,3.5023,3.5021,3.502,3.5018,3.5061,3.5064,3.5067,3.5117,0,0,3.5077,3.5078,0,0,0,0,0,0,0,0,3.494,3.4946,3.4994,3.4994,3.4994,3.5024,3.5022,3.5066,3.5023,3.5012,3.5019,3.5017,3.5051,3.5055,3.5066,3.5119,3.5121,3.5077,3.5079,3.508,3.5081,0,0,0,0,0,0,0,3.4938,3.4944,3.5013,3.4994,3.4995,3.4991,3.4995,3.503,3.5039,3.5013,3.5011,3.5017,3.5051,3.5063,3.5067,3.5121,3.5077,3.5079,3.5081,3.5083,3.5219,3.5221,0,0,0,0,0,0,3.4935,3.4942,3.5012,3.5014,3.4963,3.4994,3.4998,3.5016,3.5039,3.5041,3.5018,3.5016,3.5058,3.5063,3.5068,3.513,3.508,3.5083,3.5085,3.5218,3.522,3.5222,0,0,0,0,0,0,3.4933,3.4941,3.501,3.4978,3.4987,3.4997,3.5017,3.5017,3.503,3.5043,3.5044,3.5029,3.5057,3.5064,3.5105,3.5131,3.5084,3.5087,3.5216,3.5218,3.5221,3.5252,0,0,0,0,0,0,3.493,3.494,3.4959,3.4979,3.4988,3.5046,3.5018,3.5019,3.5035,3.5033,3.5053,3.5055,3.5057,3.5101,3.5108,3.5134,3.509,3.5213,3.5217,3.522,3.5249,3.5255,3.5261,0,0,0,0,0,3.4927,3.4966,3.496,3.4969,3.5012,3.5048,3.5053,3.5054,3.5037,3.5057,3.5065,3.5055,3.5127,3.5105,3.5114,3.5141,3.5212,3.5216,3.522,3.5246,3.5254,3.5261,0,0,0,0,0,0,3.4948,3.4968,3.4962,3.5009,3.5027,3.5045,3.5069,3.5062,3.5085,3.5082,3.5082,3.5087,3.513,3.5139,3.5115,3.5191,3.5167,3.5173,3.5184,3.5192,3.5198,3.5195,3.5092,0,0,0,0,0,3.4958,3.4986,3.5002,3.5041,3.5051,3.5058,3.5074,3.5073,3.5092,3.5099,3.5111,3.513,3.5157,3.5175,3.52,3.525,3.5255,3.5273,3.5279,3.5284,3.5289,3.5319,3.5327,3.5235,3.5235,3.5235,0,0,3.498,3.4994,3.5011,3.5046,3.506,3.5089,3.5065,3.5096,3.5118,3.5104,3.5145,3.5154,3.5175,3.5222,3.5243,3.5231,3.5316,3.5289,3.5293,3.5296,3.5324,3.5332,3.534,3.5237,3.5237,3.5237,0,0,3.5034,3.5046,3.5082,3.5097,3.5119,3.5124,3.5132,3.5152,3.5158,3.5199,3.519,3.5215,3.5261,3.5277,3.5292,3.5354,3.5346,3.5362,3.5394,3.5423,3.543,3.5437,3.5461,3.5469,3.5367,3.5367,3.5367,0,3.5057,3.5101,3.5101,3.5134,3.515,3.5139,3.5176,3.519,3.5219,3.5231,3.5217,3.5276,3.5289,3.534,3.5356,3.5367,3.5378,3.536,3.5429,3.5436,3.5442,3.5465,3.5473,3.5369,3.5369,3.5369,3.5368,0,3.513,3.516,3.5186,3.5215,3.5234,3.5269,3.5275,3.5294,3.5292,3.5299,3.5341,3.5357,3.5386,3.5398,3.5396,3.545,3.5442,3.5429,3.5404,3.5453,3.5474,3.5483,3.5372,3.5371,3.5371,3.537,0,0,3.5198,3.5228,3.5238,3.5252,3.5276,3.53,3.5334,3.5363,3.5381,3.5401,3.5431,3.5471,3.546,3.5476,3.5475,3.55,3.5551,3.5484,3.5485,3.5497,3.5614,3.5625,3.5635,3.5545,3.5547,3.5548,3.5612,0,3.5255,3.5316,3.5318,3.5374,3.5403,3.5394,3.5424,3.5443,3.545,3.5476,3.5485,3.5514,3.5495,3.5505,3.553,3.554,3.5574,3.5535,3.5574,3.5576,3.5571,3.5645,3.5657,3.5716,3.5621,3.5622,3.5623,0,3.533,3.5354,3.5413,3.5435,3.5447,3.5474,3.5502,3.5527,3.5548,3.5552,3.5571,3.5568,3.5604,3.5578,3.5629,3.5602,3.5618,3.5625,3.5628,3.5632,3.5603,3.5654,3.5735,3.5745,3.5636,3.5635,3.5634,0,3.5376,3.5423,3.5465,3.5477,3.5503,3.5523,3.5535,3.5554,3.5573,3.5597,3.5609,3.5637,3.5653,3.5675,3.568,3.566,3.5731,3.5705,3.5737,3.5737,3.5753,3.5752,3.584,3.5761,3.5761,3.5761,3.5761,0,3.544,3.5477,3.5487,3.5513,3.5554,3.5556,3.5597,3.5608,3.5626,3.5654,3.5647,3.5674,3.5678,3.5706,3.571,3.5752,3.5759,3.5764,3.5765,3.5766,3.5765,3.5777,3.5774,3.5763,3.5763,3.5762,3.5762,0,3.5499,3.5507,3.5552,3.5574,3.558,3.561,3.5628,3.5654,3.5661,3.5697,3.5706,3.5718,3.5751,3.5757,3.5796,3.5798,3.585,3.5845,3.5843,3.5843,3.5875,3.5872,3.5974,3.5989,3.5899,3.59,3.5901,0,3.5541,3.5569,3.5594,3.5613,3.5626,3.5656,3.5675,3.5678,3.5698,3.5726,3.5748,3.578,3.5807,3.586,3.5872,3.5902,3.5899,3.5933,3.5904,3.5904,3.5902,3.5901,3.5905,3.5939,3.594,3.5941,3.5942,0,3.5614,3.5617,3.5644,3.5674,3.5697,3.572,3.5742,3.5758,3.5764,3.5787,3.5821,3.5842,3.5882,3.5915,3.5945,3.5957,3.5952,3.5951,3.596,3.5962,3.596,3.5963,3.586,3.5948,3.5948,3.5947,3.5947,3.5947,3.5666,3.5692,3.5714,3.5746,3.5763,3.5784,3.581,3.5821,3.5849,3.5883,3.5883,3.592,3.5943,3.5983,3.5997,3.6027,3.6017,3.603,3.6033,3.6037,3.6041,3.5954,3.6033,3.6032,3.6032,3.6032,3.6032,0,3.5741,3.5755,3.5784,3.5816,3.5841,3.5833,3.5857,3.5879,3.5912,3.5933,3.596,3.6,3.6032,3.6047,3.6079,3.61,3.6099,3.6109,3.6108,3.6111,3.6047,3.6037,3.611,3.611,3.611,3.611,3.611,3.611,3.5782,3.5826,3.5832,3.5884,3.5898,3.5935,3.595,3.597,3.5988,3.6033,3.606,3.607,3.6089,3.6123,3.6152,3.6156,3.6169,3.6181,3.6183,3.6124,3.6116,3.6108,3.6098,3.6183,3.6183,3.6245,3.6246,3.6246]}]]